TimeCDT,TemperatureF,Dew PointF,Humidity,Sea Level PressureIn,VisibilityMPH,Wind Direction,Wind SpeedMPH,Gust SpeedMPH,PrecipitationIn,Events,Conditions,WindDirDegrees,DateUTC
12:53 AM,73.4,64.4,73,29.92,10.0,South,13.8,-,N/A,,Partly Cloudy,170,2012-10-23 05:53:00
1:53 AM,73.4,64.4,73,29.92,10.0,South,16.1,-,N/A,,Clear,180,2012-10-23 06:53:00
2:53 AM,72.0,64.0,76,29.91,10.0,South,17.3,24.2,N/A,,Partly Cloudy,180,2012-10-23 07:53:00
3:39 AM,71.6,64.4,78,29.93,10.0,South,12.7,20.7,N/A,,Mostly Cloudy,180,2012-10-23 08:39:00
3:53 AM,71.1,64.0,78,29.91,10.0,South,16.1,-,N/A,,Mostly Cloudy,180,2012-10-23 08:53:00
4:53 AM,71.1,64.9,81,29.91,10.0,South,11.5,-,N/A,,Mostly Cloudy,180,2012-10-23 09:53:00
5:14 AM,71.6,64.4,78,29.94,10.0,South,12.7,-,N/A,,Mostly Cloudy,170,2012-10-23 10:14:00
5:53 AM,71.1,66.0,84,29.92,10.0,SSE,12.7,-,N/A,,Mostly Cloudy,160,2012-10-23 10:53:00
6:23 AM,71.6,66.2,83,29.94,10.0,SSE,12.7,-,N/A,,Overcast,160,2012-10-23 11:23:00
6:53 AM,71.1,66.0,84,29.93,10.0,SSE,15.0,-,N/A,,Overcast,150,2012-10-23 11:53:00
7:53 AM,71.1,66.0,84,29.94,10.0,South,12.7,-,N/A,,Overcast,170,2012-10-23 12:53:00
8:00 AM,71.6,66.2,83,29.96,9.0,South,15.0,-,N/A,,Mostly Cloudy,170,2012-10-23 13:00:00
8:48 AM,71.6,66.2,83,29.96,10.0,SSE,13.8,-,N/A,,Mostly Cloudy,160,2012-10-23 13:48:00
8:53 AM,72.0,66.0,81,29.95,10.0,SSE,15.0,-,N/A,,Mostly Cloudy,160,2012-10-23 13:53:00
9:53 AM,73.9,66.9,79,29.96,10.0,South,13.8,-,N/A,,Mostly Cloudy,170,2012-10-23 14:53:00
10:53 AM,79.0,66.9,66,29.95,10.0,South,15.0,-,N/A,,Scattered Clouds,180,2012-10-23 15:53:00
11:53 AM,80.1,66.9,64,29.94,10.0,South,17.3,24.2,N/A,,Scattered Clouds,170,2012-10-23 16:53:00
12:53 PM,81.0,66.9,62,29.92,10.0,South,19.6,24.2,N/A,,Mostly Cloudy,170,2012-10-23 17:53:00
1:53 PM,82.0,66.0,58,29.90,10.0,South,10.4,-,N/A,,Overcast,190,2012-10-23 18:53:00
2:53 PM,82.9,66.0,56,29.88,10.0,SSE,16.1,-,N/A,,Mostly Cloudy,160,2012-10-23 19:53:00
3:53 PM,82.9,64.9,54,29.87,10.0,SSW,12.7,23.0,N/A,,Mostly Cloudy,200,2012-10-23 20:53:00
4:53 PM,84.0,64.9,53,29.87,10.0,South,16.1,19.6,N/A,,Mostly Cloudy,180,2012-10-23 21:53:00
5:53 PM,82.4,66.2,58,29.89,10.0,South,15.0,-,N/A,,Scattered Clouds,170,2012-10-23 22:53:00
6:53 PM,80.1,66.0,62,29.87,10.0,SSE,12.7,-,N/A,,Scattered Clouds,160,2012-10-23 23:53:00
7:53 PM,79.0,64.9,62,29.88,10.0,SSE,13.8,-,N/A,,Clear,160,2012-10-24 00:53:00
8:53 PM,77.0,64.9,66,29.89,10.0,South,13.8,-,N/A,,Clear,170,2012-10-24 01:53:00
9:53 PM,75.9,64.9,69,29.90,10.0,South,16.1,-,N/A,,Clear,170,2012-10-24 02:53:00
10:53 PM,75.0,64.9,71,29.91,10.0,South,11.5,-,N/A,,Clear,180,2012-10-24 03:53:00
11:53 PM,73.9,64.0,71,29.91,10.0,South,6.9,-,N/A,,Clear,180,2012-10-24 04:53:00